Weather History for Elefsis, Greece

Change the Weather History Date:

Sunday, January 6, 2013

  Actual Average Record
Temperature  
Mean Temperature 46 °F -  
Max Temperature 50 °F 54 °F 66 °F (2003)
Min Temperature 42 °F 40 °F 28 °F (2002)
Degree Days  
Heating Degree Days 19    
Moisture  
Dew Point 36 °F    
Average Humidity 69    
Maximum Humidity 81    
Minimum Humidity 58    
Precipitation  
Precipitation 0.00 in - - ()
Sea Level Pressure  
Sea Level Pressure 29.82 in    
Wind  
Wind Speed 13 mph ()    
Max Wind Speed 28 mph    
Max Gust Speed 46 mph    
Visibility 6.0 miles    
Events      
Averages and records for this station are not official NWS values.
T = Trace of Precipitation, MM = Missing Value Source: Averaged Metar Reports

Daily Weather History Graph

Daily Weather History Graph

Search for Another Location

Airport:

Trip Planner

Search our weather history database for the weather conditions in past years. The results will help you decide how hot, cold, wet, or windy it might be!

Date:

Astronomy

Jan. 06, 2013 Rise Set
Actual Time 7:42 AM EET 5:21 PM EET
Civil Twilight 7:13 AM EET 5:50 PM EET
Nautical Twilight 6:40 AM EET 6:23 PM EET
Astronomical Twilight 6:08 AM EET 6:55 PM EET
Moon 1:37 AM EET (1/6) 12:34 PM EET (1/6)
Length of Visible Light 10h 37m
Length of Day
9h 38m
Last Quarter, 36% of the Moon is Illuminated
Jan 6
Last Quarter
Jan 11
New
Jan 19
First Quarter
Jan 27
Full
Feb 3
Last Quarter

Hourly Weather History & Observations

Time (EET) Temp. Windchill Dew Point Humidity Pressure Visibility Wind Dir Wind Speed Gust Speed Precip Events Conditions
12:50 AM 42.8 °F - 35.6 °F 76% 29.80 in 6.2 mi Calm Calm - N/A   Partly Cloudy
1:50 AM 44.6 °F - 37.4 °F 76% 29.77 in 6.2 mi Calm Calm - N/A   Mostly Cloudy
2:50 AM 46.4 °F 44.3 °F 39.2 °F 76% 29.77 in 6.2 mi NNW 4.6 mph - N/A   Mostly Cloudy
3:50 AM 44.6 °F - 39.2 °F 81% 29.74 in 6.2 mi Calm Calm - N/A   Partly Cloudy
4:50 AM 48.2 °F - 35.6 °F 62% 29.74 in 6.2 mi NW 5.8 mph - N/A   Mostly Cloudy
5:20 AM 50.0 °F - 35.6 °F 58% 29.71 in 6.2 mi NW 8.1 mph - N/A   Mostly Cloudy
5:50 AM 50.0 °F - 35.6 °F 58% 29.74 in 6.2 mi NW 8.1 mph - N/A   Mostly Cloudy
6:20 AM 50.0 °F - 37.4 °F 62% 29.74 in 6.2 mi NNW 13.8 mph - N/A   Mostly Cloudy
6:50 AM 46.4 °F 39.2 °F 37.4 °F 71% 29.74 in 6.2 mi NNW 18.4 mph 29.9 mph N/A   Light Drizzle
7:20 AM 44.6 °F 37.2 °F 39.2 °F 81% 29.77 in 6.2 mi NW 17.3 mph 31.1 mph N/A   Light Drizzle
7:50 AM 46.4 °F 38.5 °F 37.4 °F 71% 29.77 in 6.2 mi NW 21.9 mph 35.7 mph N/A   Mostly Cloudy
8:20 AM 46.4 °F 38.3 °F 37.4 °F 71% 29.77 in 6.2 mi NW 23.0 mph 36.8 mph N/A   Mostly Cloudy
8:50 AM 46.4 °F 38.5 °F 35.6 °F 66% 29.77 in 6.2 mi NW 21.9 mph 38.0 mph N/A   Mostly Cloudy
9:20 AM 48.2 °F - 35.6 °F 62% 29.77 in 6.2 mi NNW 20.7 mph 32.2 mph N/A   Mostly Cloudy
9:50 AM 48.2 °F - 35.6 °F 62% 29.80 in 5.0 mi NNW 21.9 mph 35.7 mph N/A   Mostly Cloudy
10:20 AM 46.4 °F 38.5 °F 35.6 °F 66% 29.80 in 5.0 mi NNW 21.9 mph 35.7 mph N/A   Mostly Cloudy
10:50 AM 46.4 °F 37.7 °F 35.6 °F 66% 29.83 in 5.0 mi NNW 26.5 mph 44.9 mph N/A   Overcast
11:20 AM 46.4 °F 38.1 °F 35.6 °F 66% 29.83 in 5.0 mi NNW 24.2 mph 42.6 mph N/A   Overcast
11:50 AM 46.4 °F 37.7 °F 35.6 °F 66% 29.83 in 6.2 mi NNW 26.5 mph 44.9 mph N/A   Mostly Cloudy
12:20 PM 44.6 °F 35.1 °F 37.4 °F 76% 29.83 in 6.2 mi NNW 27.6 mph 46.0 mph N/A   Scattered Clouds
12:50 PM 46.4 °F 37.9 °F 35.6 °F 66% 29.83 in 5.0 mi NNW 25.3 mph 42.6 mph N/A   Light Drizzle
1:50 PM 46.4 °F 37.9 °F 37.4 °F 71% 29.83 in 5.0 mi NNW 25.3 mph 40.3 mph N/A   Mostly Cloudy
2:20 PM 46.4 °F 38.1 °F 37.4 °F 71% 29.80 in 5.0 mi NNW 24.2 mph 42.6 mph N/A   Mostly Cloudy
2:50 PM 44.6 °F 35.5 °F 37.4 °F 76% 29.83 in 5.0 mi NNW 25.3 mph 41.4 mph N/A   Light Drizzle
3:20 PM 44.6 °F 35.7 °F 37.4 °F 76% 29.83 in 6.2 mi NNW 24.2 mph 35.7 mph N/A   Light Drizzle
3:50 PM 44.6 °F 36.6 °F 37.4 °F 76% 29.86 in 6.2 mi NNW 19.6 mph 34.5 mph N/A   Light Drizzle
4:20 PM 46.4 °F 38.7 °F 35.6 °F 66% 29.86 in 6.2 mi NNW 20.7 mph 34.5 mph N/A   Scattered Clouds
4:50 PM 44.6 °F 35.1 °F 33.8 °F 66% 29.83 in 6.2 mi NNW 27.6 mph 42.6 mph N/A   Scattered Clouds
5:20 PM 44.6 °F 36.9 °F 35.6 °F 71% 29.86 in 6.2 mi NNW 18.4 mph 32.2 mph N/A   Scattered Clouds
5:50 PM 44.6 °F 37.2 °F 35.6 °F 71% 29.86 in 6.2 mi NNW 17.3 mph 28.8 mph N/A   Scattered Clouds
6:20 PM 42.8 °F 34.0 °F 35.6 °F 76% 29.86 in 6.2 mi NW 20.7 mph 32.2 mph N/A   Scattered Clouds
6:50 PM 42.8 °F 35.4 °F 35.6 °F 76% 29.89 in 6.2 mi NNW 15.0 mph - N/A   Scattered Clouds
7:20 PM 44.6 °F 36.9 °F 33.8 °F 66% 29.89 in 6.2 mi NNW 18.4 mph 29.9 mph N/A   Scattered Clouds
7:50 PM 44.6 °F 37.8 °F 33.8 °F 66% 29.89 in 6.2 mi North 15.0 mph 26.5 mph N/A   Scattered Clouds
8:20 PM 42.8 °F 35.4 °F 33.8 °F 70% 29.92 in 6.2 mi NNW 15.0 mph - N/A   Scattered Clouds
8:50 PM 42.8 °F 37.0 °F 33.8 °F 70% 29.92 in 6.2 mi North 10.4 mph 21.9 mph N/A   Scattered Clouds
9:20 PM 42.8 °F 35.8 °F 33.8 °F 70% 29.92 in 6.2 mi NNW 13.8 mph 25.3 mph N/A   Scattered Clouds
9:50 PM 44.6 °F 38.1 °F 33.8 °F 66% 29.89 in 6.2 mi NNW 13.8 mph 25.3 mph N/A   Scattered Clouds
10:20 PM 42.8 °F 36.6 °F 32.0 °F 66% 29.89 in 6.2 mi NNW 11.5 mph - N/A   Scattered Clouds
10:50 PM 42.8 °F 37.5 °F 32.0 °F 66% 29.92 in 6.2 mi NNW 9.2 mph - N/A   Partly Cloudy
11:50 PM 44.6 °F 38.8 °F 32.0 °F 61% 29.89 in 6.2 mi NNW 11.5 mph 24.2 mph N/A   Partly Cloudy